TimeCST,TemperatureF,Dew PointF,Humidity,Sea Level PressureIn,VisibilityMPH,Wind Direction,Wind SpeedMPH,Gust SpeedMPH,PrecipitationIn,Events,Conditions,WindDirDegrees,DateUTC
12:53 AM,19.0,-9999,N/A,30.36,10.0,NE,8.1,-,N/A,,Clear,50,2014-03-04 06:53:00
1:53 AM,18.0,-9999,N/A,30.32,10.0,NE,4.6,-,N/A,,Clear,50,2014-03-04 07:53:00
2:53 AM,17.1,-9999,N/A,30.30,10.0,NNE,4.6,-,N/A,,Clear,20,2014-03-04 08:53:00
3:53 AM,17.1,-9999,N/A,30.27,10.0,NE,4.6,-,N/A,,Clear,50,2014-03-04 09:53:00
4:53 AM,16.0,-9999,N/A,30.30,10.0,Calm,Calm,-,N/A,,Clear,0,2014-03-04 10:53:00
5:53 AM,16.0,-9999,N/A,30.27,10.0,NNE,8.1,-,N/A,,Clear,30,2014-03-04 11:53:00
6:53 AM,17.1,-9999,N/A,30.29,10.0,NE,5.8,-,N/A,,Clear,40,2014-03-04 12:53:00
7:53 AM,18.0,-9999,N/A,30.31,10.0,NNE,8.1,-,N/A,,Clear,30,2014-03-04 13:53:00
8:53 AM,21.0,18.0,88,30.34,10.0,ENE,4.6,-,N/A,,Clear,60,2014-03-04 14:53:00
9:53 AM,23.0,21.0,92,30.34,10.0,ENE,5.8,-,N/A,,Clear,70,2014-03-04 15:53:00
10:53 AM,26.1,23.0,88,30.31,10.0,ENE,4.6,-,N/A,,Clear,60,2014-03-04 16:53:00
11:53 AM,28.0,25.0,88,30.26,10.0,ENE,6.9,-,N/A,,Clear,60,2014-03-04 17:53:00
12:53 PM,28.9,25.0,85,30.23,10.0,East,9.2,-,N/A,,Clear,80,2014-03-04 18:53:00
1:53 PM,28.9,24.1,82,30.21,10.0,East,9.2,-,N/A,,Clear,80,2014-03-04 19:53:00
2:53 PM,30.0,25.0,82,30.20,10.0,East,6.9,-,N/A,,Clear,90,2014-03-04 20:53:00
3:53 PM,30.0,26.1,85,30.19,10.0,East,5.8,-,N/A,,Clear,90,2014-03-04 21:53:00
4:53 PM,30.0,24.1,79,30.20,10.0,ENE,5.8,-,N/A,,Clear,70,2014-03-04 22:53:00
5:53 PM,28.0,23.0,81,30.19,10.0,ESE,5.8,-,N/A,,Clear,110,2014-03-04 23:53:00
6:53 PM,26.1,21.0,81,30.20,10.0,East,4.6,-,N/A,,Clear,90,2014-03-05 00:53:00
7:53 PM,25.0,19.9,81,30.21,10.0,ENE,3.5,-,N/A,,Clear,70,2014-03-05 01:53:00
8:53 PM,24.1,21.0,88,30.20,10.0,East,3.5,-,N/A,,Clear,90,2014-03-05 02:53:00
9:53 PM,21.9,19.9,92,30.19,10.0,East,4.6,-,N/A,,Clear,90,2014-03-05 03:53:00
10:41 PM,23.0,19.4,86,30.17,9.0,East,4.6,-,N/A,,Scattered Clouds,100,2014-03-05 04:41:00
10:50 PM,23.0,21.2,93,30.17,8.0,ESE,5.8,-,N/A,,Mostly Cloudy,110,2014-03-05 04:50:00
10:53 PM,24.1,21.0,88,30.17,8.0,ESE,5.8,-,N/A,,Mostly Cloudy,110,2014-03-05 04:53:00
11:20 PM,24.8,23.0,93,30.16,4.0,ESE,6.9,-,N/A,,Overcast,120,2014-03-05 05:20:00
11:53 PM,25.0,24.1,96,30.17,2.5,SE,8.1,-,N/A,,Overcast,140,2014-03-05 05:53:00